"read_dt","SO2 (ppb)","flags","PMT voltage (V)","lamp voltage (V)","lamp intensity (Hz)","internal temp (C)","react chamber temp (C)","sample flow (l/min)","pres (mmHg)","SO2 bkg (ppb)","SO2 coefficient"
2016-02-25 00:00:00,2291E-3,5C000400,-0724,0837,12170,029.7,045.5,0.253,761.7,01.16,0.508
2016-02-25 00:01:00,2160E-3,5C000400,-0724,0836,12139,029.7,045.5,0.253,761.7,01.16,0.508
2016-02-25 00:02:00,2455E-3,5C000400,-0724,0837,12198,029.7,045.5,0.253,761.7,01.16,0.508
2016-02-25 00:03:00,2366E-3,5C000400,-0724,0837,11976,029.7,045.5,0.252,761.7,01.16,0.508
2016-02-25 00:04:00,2448E-3,5C000400,-0724,0837,12109,029.7,045.5,0.253,761.7,01.16,0.508
2016-02-25 00:05:00,2455E-3,5C000400,-0724,0837,12071,029.8,045.5,0.253,761.7,01.16,0.508
2016-02-25 00:06:00,2307E-3,5C000400,-0724,0837,12087,029.7,045.5,0.253,761.7,01.16,0.508
2016-02-25 00:07:00,2391E-3,5C000400,-0724,0837,12237,029.7,045.5,0.253,761.7,01.16,0.508
2016-02-25 00:08:00,2420E-3,5C000400,-0724,0838,12197,029.8,045.5,0.252,761.7,01.16,0.508
2016-02-25 00:09:00,2305E-3,5C000400,-0724,0838,12045,029.7,045.5,0.252,761.7,01.16,0.508
2016-02-25 00:10:00,2292E-3,5C000400,-0724,0837,12152,029.7,045.5,0.253,761.7,01.16,0.508
2016-02-25 00:11:00,2473E-3,5C000400,-0724,0837,12273,029.8,045.5,0.253,761.7,01.16,0.508
2016-02-25 00:12:00,2281E-3,5C000400,-0724,0837,12103,029.7,045.5,0.253,761.6,01.16,0.508
2016-02-25 00:13:00,2438E-3,5C000400,-0724,0837,12244,029.7,045.5,0.252,761.6,01.16,0.508
2016-02-25 00:14:00,2399E-3,5C000400,-0724,0837,12093,029.7,045.5,0.252,761.6,01.16,0.508
2016-02-25 00:15:00,2319E-3,5C000400,-0724,0837,12095,029.7,045.5,0.253,761.6,01.16,0.508
2016-02-25 00:16:00,2317E-3,5C000400,-0724,0836,12170,029.8,045.5,0.253,761.6,01.16,0.508
2016-02-25 00:17:00,2339E-3,5C000400,-0724,0838,12273,029.8,045.5,0.253,761.6,01.16,0.508
2016-02-25 00:18:00,2281E-3,5C000400,-0724,0838,12148,029.7,045.5,0.253,761.6,01.16,0.508
2016-02-25 00:19:00,2269E-3,5C000400,-0724,0836,12087,029.7,045.5,0.252,761.6,01.16,0.508
2016-02-25 00:20:00,2276E-3,5C000400,-0724,0836,12151,029.7,045.5,0.253,761.6,01.16,0.508
2016-02-25 00:21:00,2320E-3,5C000400,-0724,0837,12140,029.8,045.5,0.253,761.6,01.16,0.508
2016-02-25 00:22:00,2355E-3,5C000400,-0724,0836,12216,029.8,045.5,0.253,761.5,01.16,0.508
2016-02-25 00:23:00,2258E-3,5C000400,-0724,0837,11977,029.7,045.5,0.253,761.5,01.16,0.508
2016-02-25 00:24:00,2340E-3,5C000400,-0724,0837,12172,029.8,045.5,0.252,761.5,01.16,0.508
2016-02-25 00:25:00,2229E-3,5C000400,-0724,0837,12140,029.8,045.5,0.252,761.5,01.16,0.508
2016-02-25 00:26:00,2187E-3,5C000400,-0724,0837,12036,029.8,045.5,0.253,761.5,01.16,0.508
2016-02-25 00:27:00,2209E-3,5C000400,-0724,0837,12160,029.7,045.5,0.253,761.5,01.16,0.508
2016-02-25 00:28:00,2218E-3,5C000400,-0724,0837,11953,029.8,045.5,0.253,761.5,01.16,0.508
2016-02-25 00:29:00,2362E-3,5C000400,-0724,0837,12070,029.8,045.5,0.253,761.5,01.16,0.508
2016-02-25 00:30:00,2331E-3,5C000400,-0724,0837,11992,029.8,045.5,0.252,761.5,01.16,0.508
2016-02-25 00:31:00,2252E-3,5C000400,-0724,0837,12180,029.7,045.5,0.252,761.5,01.16,0.508
2016-02-25 00:32:00,2243E-3,5C000400,-0724,0837,11945,029.8,045.5,0.253,761.5,01.16,0.508
2016-02-25 00:33:00,2259E-3,5C000400,-0724,0836,12137,029.8,045.5,0.253,761.4,01.16,0.508
2016-02-25 00:34:00,2264E-3,5C000400,-0724,0836,12094,029.8,045.5,0.253,761.4,01.16,0.508
2016-02-25 00:35:00,2205E-3,5C000400,-0724,0837,12152,029.8,045.5,0.252,761.4,01.16,0.508
2016-02-25 00:36:00,2280E-3,5C000400,-0724,0838,12076,029.8,045.5,0.252,761.4,01.16,0.508
2016-02-25 00:37:00,2167E-3,5C000400,-0724,0837,12082,029.7,045.5,0.253,761.4,01.16,0.508
2016-02-25 00:38:00,2259E-3,5C000400,-0724,0837,11968,029.8,045.5,0.253,761.4,01.16,0.508
2016-02-25 00:39:00,2339E-3,5C000400,-0724,0837,12066,029.8,045.5,0.253,761.4,01.16,0.508
2016-02-25 00:40:00,2399E-3,5C000400,-0724,0837,12061,029.8,045.5,0.253,761.4,01.16,0.508
2016-02-25 00:41:00,2321E-3,5C000400,-0724,0837,12100,029.8,045.5,0.252,761.4,01.16,0.508
2016-02-25 00:42:00,2204E-3,5C000400,-0724,0837,12151,029.8,045.5,0.253,761.3,01.16,0.508
2016-02-25 00:43:00,2236E-3,5C000400,-0724,0836,12062,029.8,045.5,0.253,761.3,01.16,0.508
2016-02-25 00:44:00,2258E-3,5C000400,-0724,0837,12185,029.8,045.5,0.253,761.3,01.16,0.508
2016-02-25 00:45:00,2049E-3,5C000400,-0724,0837,12009,029.8,045.5,0.252,761.4,01.16,0.508
2016-02-25 00:46:00,2272E-3,5C000400,-0724,0837,12203,029.8,045.5,0.252,761.4,01.16,0.508
2016-02-25 00:47:00,2182E-3,5C000400,-0724,0837,12160,029.8,045.5,0.252,761.4,01.16,0.508
2016-02-25 00:48:00,2368E-3,5C000400,-0724,0837,12159,029.8,045.5,0.253,761.4,01.16,0.508
2016-02-25 00:49:00,2356E-3,5C000400,-0724,0836,12085,029.8,045.5,0.253,761.4,01.16,0.508
2016-02-25 00:50:00,2240E-3,5C000400,-0724,0837,12196,029.8,045.5,0.253,761.4,01.16,0.508
2016-02-25 00:51:00,2236E-3,5C000400,-0724,0837,12268,029.8,045.5,0.252,761.3,01.16,0.508
2016-02-25 00:52:00,2212E-3,5C000400,-0724,0837,12093,029.8,045.5,0.252,761.3,01.16,0.508
2016-02-25 00:53:00,2130E-3,5C000400,-0724,0837,12127,029.9,045.5,0.252,761.3,01.16,0.508
2016-02-25 00:54:00,2136E-3,5C000400,-0724,0837,11932,029.8,045.5,0.252,761.3,01.16,0.508
2016-02-25 00:55:00,2186E-3,5C000400,-0724,0837,12219,029.8,045.5,0.253,761.3,01.16,0.508
2016-02-25 00:56:00,2242E-3,5C000400,-0724,0837,12161,029.8,045.5,0.253,761.3,01.16,0.508
2016-02-25 00:57:00,2222E-3,5C000400,-0724,0838,12199,029.8,045.5,0.252,761.3,01.16,0.508
2016-02-25 00:58:00,2222E-3,5C000400,-0724,0837,12195,029.9,045.5,0.252,761.3,01.16,0.508
2016-02-25 00:59:00,2272E-3,5C000400,-0724,0837,12125,029.9,045.5,0.252,761.3,01.16,0.508
2016-02-25 01:00:00,2073E-3,5C000400,-0724,0837,12095,029.8,045.5,0.252,761.3,01.16,0.508
2016-02-25 01:01:00,2160E-3,5C000400,-0724,0837,12094,029.9,045.5,0.253,761.3,01.16,0.508
2016-02-25 01:02:00,2256E-3,5C000400,-0724,0837,12186,029.8,045.5,0.252,761.3,01.16,0.508
2016-02-25 01:03:00,2349E-3,5C000400,-0724,0838,12168,029.9,045.5,0.252,761.3,01.16,0.508
2016-02-25 01:04:00,2121E-3,5C000400,-0724,0837,12041,029.9,045.5,0.252,761.3,01.16,0.508
2016-02-25 01:05:00,2249E-3,5C000400,-0724,0837,12177,029.9,045.5,0.252,761.3,01.16,0.508
2016-02-25 01:06:00,2333E-3,5C000400,-0724,0838,12107,029.9,045.5,0.252,761.3,01.16,0.508
2016-02-25 01:07:00,2178E-3,5C000400,-0724,0837,11948,029.9,045.5,0.252,761.3,01.16,0.508
2016-02-25 01:08:00,2175E-3,5C000400,-0724,0837,12059,029.9,045.5,0.252,761.3,01.16,0.508
2016-02-25 01:09:00,2205E-3,5C000400,-0724,0836,12181,029.9,045.5,0.252,761.3,01.16,0.508
2016-02-25 01:10:00,2102E-3,5C000400,-0724,0837,12188,029.9,045.5,0.252,761.3,01.16,0.508
2016-02-25 01:11:00,2237E-3,5C000400,-0724,0837,12078,029.9,045.5,0.252,761.3,01.16,0.508
2016-02-25 01:12:00,2144E-3,5C000400,-0724,0837,12055,029.9,045.5,0.252,761.3,01.16,0.508
2016-02-25 01:13:00,2271E-3,5C000400,-0724,0837,12129,029.9,045.5,0.252,761.3,01.16,0.508
2016-02-25 01:14:00,2362E-3,5C000400,-0724,0837,12031,029.9,045.5,0.252,761.3,01.16,0.508
2016-02-25 01:15:00,2418E-3,5C000400,-0724,0837,12243,029.9,045.5,0.252,761.3,01.16,0.508
2016-02-25 01:16:00,2145E-3,5C000400,-0724,0837,12149,029.9,045.5,0.252,761.3,01.16,0.508
2016-02-25 01:17:00,2207E-3,5C000400,-0724,0837,12020,030.0,045.5,0.252,761.2,01.16,0.508
2016-02-25 01:18:00,2245E-3,5C000400,-0724,0837,12020,029.9,045.5,0.252,761.3,01.16,0.508
2016-02-25 01:19:00,2301E-3,5C000400,-0724,0837,12184,029.9,045.5,0.252,761.3,01.16,0.508
2016-02-25 01:20:00,2177E-3,5C000400,-0724,0837,12243,030.0,045.5,0.252,761.2,01.16,0.508
2016-02-25 01:21:00,2348E-3,5C000400,-0724,0837,12051,030.0,045.5,0.252,761.2,01.16,0.508
2016-02-25 01:22:00,2252E-3,5C000400,-0724,0837,12096,030.0,045.5,0.252,761.2,01.16,0.508
2016-02-25 01:23:00,2264E-3,5C000400,-0724,0837,12087,030.0,045.5,0.252,761.2,01.16,0.508
2016-02-25 01:24:00,2328E-3,5C000400,-0724,0837,11929,030.0,045.5,0.252,761.2,01.16,0.508
2016-02-25 01:25:00,2217E-3,5C000400,-0724,0837,12134,030.0,045.5,0.252,761.2,01.16,0.508
2016-02-25 01:26:00,2253E-3,5C000400,-0724,0837,12153,030.0,045.5,0.252,761.2,01.16,0.508
2016-02-25 01:27:00,2179E-3,5C000400,-0724,0837,12168,030.0,045.5,0.252,761.2,01.16,0.508
2016-02-25 01:28:00,2317E-3,5C000400,-0724,0837,11941,030.0,045.5,0.252,761.2,01.16,0.508
2016-02-25 01:29:00,2177E-3,5C000400,-0724,0836,12104,030.0,045.5,0.252,761.2,01.16,0.508
2016-02-25 01:30:00,2269E-3,5C000400,-0724,0838,12089,030.0,045.5,0.252,761.2,01.16,0.508
2016-02-25 01:31:00,2196E-3,5C000400,-0724,0837,12130,030.0,045.5,0.252,761.2,01.16,0.508
2016-02-25 01:32:00,2319E-3,5C000400,-0724,0837,12166,030.0,045.5,0.252,761.2,01.16,0.508
2016-02-25 01:33:00,2189E-3,5C000400,-0724,0836,12104,030.0,045.5,0.252,761.2,01.16,0.508
2016-02-25 01:34:00,2072E-3,5C000400,-0724,0837,12018,030.0,045.5,0.252,761.2,01.16,0.508
2016-02-25 01:35:00,2364E-3,5C000400,-0724,0836,12130,030.0,045.5,0.252,761.1,01.16,0.508
2016-02-25 01:36:00,2282E-3,5C000400,-0724,0837,12034,030.1,045.5,0.252,761.1,01.16,0.508
2016-02-25 01:37:00,2154E-3,5C000400,-0724,0837,11900,030.1,045.5,0.252,761.2,01.16,0.508
2016-02-25 01:38:00,2218E-3,5C000400,-0724,0837,12032,030.1,045.5,0.252,761.1,01.16,0.508
2016-02-25 01:39:00,2235E-3,5C000400,-0724,0838,12175,030.1,045.5,0.252,761.1,01.16,0.508
2016-02-25 01:40:00,2216E-3,5C000400,-0724,0837,12070,030.1,045.5,0.252,761.1,01.16,0.508
2016-02-25 01:41:00,2109E-3,5C000400,-0724,0837,12177,030.1,045.5,0.252,761.1,01.16,0.508
2016-02-25 01:42:00,2126E-3,5C000400,-0724,0837,12020,030.1,045.5,0.252,761.1,01.16,0.508
2016-02-25 01:43:00,2205E-3,5C000400,-0724,0837,12092,030.1,045.5,0.252,761.1,01.16,0.508
2016-02-25 01:44:00,2313E-3,5C000400,-0724,0838,12143,030.1,045.5,0.252,761.1,01.16,0.508
2016-02-25 01:45:00,2124E-3,5C000400,-0724,0837,12127,030.1,045.5,0.252,761.1,01.16,0.508
2016-02-25 01:46:00,2217E-3,5C000400,-0724,0836,12098,030.1,045.5,0.252,761.1,01.16,0.508
2016-02-25 01:47:00,2148E-3,5C000400,-0724,0837,12168,030.1,045.5,0.252,761.1,01.16,0.508
2016-02-25 01:48:00,2184E-3,5C000400,-0724,0837,12179,030.2,045.5,0.252,761.1,01.16,0.508
2016-02-25 01:49:00,2177E-3,5C000400,-0724,0837,12283,030.1,045.5,0.252,761.1,01.16,0.508
2016-02-25 01:50:00,2406E-3,5C000400,-0724,0838,12178,030.2,045.5,0.252,761.1,01.16,0.508
2016-02-25 01:51:00,2178E-3,5C000400,-0724,0838,12202,030.2,045.5,0.252,761.1,01.16,0.508
2016-02-25 01:52:00,2196E-3,5C000400,-0724,0837,12138,030.2,045.5,0.252,761.1,01.16,0.508
2016-02-25 01:53:00,2238E-3,5C000400,-0724,0838,11925,030.2,045.5,0.252,761.1,01.16,0.508
2016-02-25 01:54:00,2104E-3,5C000400,-0724,0837,11819,030.2,045.5,0.252,761.1,01.16,0.508
2016-02-25 01:55:00,2132E-3,5C000400,-0724,0837,12125,030.2,045.5,0.252,761.1,01.16,0.508
2016-02-25 01:56:00,2275E-3,5C000400,-0724,0837,12175,030.2,045.5,0.252,761.0,01.16,0.508
2016-02-25 01:57:00,2182E-3,5C000400,-0724,0837,12111,030.2,045.5,0.252,761.0,01.16,0.508
2016-02-25 01:58:00,2162E-3,5C000400,-0724,0837,12064,030.2,045.5,0.252,761.0,01.16,0.508
2016-02-25 01:59:00,2095E-3,5C000400,-0724,0837,12126,030.3,045.5,0.252,761.1,01.16,0.508
2016-02-25 02:00:00,2137E-3,5C000400,-0724,0836,12020,030.2,045.5,0.251,761.0,01.16,0.508
2016-02-25 02:01:00,2180E-3,5C000400,-0724,0837,12023,030.2,045.5,0.252,761.0,01.16,0.508
2016-02-25 02:02:00,2032E-3,5C000400,-0724,0837,12285,030.3,045.5,0.252,761.0,01.16,0.508
2016-02-25 02:03:00,2249E-3,5C000400,-0724,0837,12171,030.3,045.5,0.252,761.0,01.16,0.508
2016-02-25 02:04:00,2104E-3,5C000400,-0724,0838,12049,030.3,045.5,0.252,761.0,01.16,0.508
2016-02-25 02:05:00,2071E-3,5C000400,-0724,0837,12121,030.3,045.5,0.251,761.0,01.16,0.508
2016-02-25 02:06:00,2111E-3,5C000400,-0724,0838,12163,030.3,045.5,0.252,761.0,01.16,0.508
2016-02-25 02:07:00,2109E-3,5C000400,-0724,0837,12077,030.3,045.5,0.252,760.9,01.16,0.508
2016-02-25 02:08:00,2239E-3,5C000400,-0724,0837,12130,030.3,045.5,0.252,760.9,01.16,0.508
2016-02-25 02:09:00,2053E-3,5C000400,-0724,0837,12158,030.3,045.5,0.252,760.9,01.16,0.508
2016-02-25 02:10:00,2121E-3,5C000400,-0724,0837,12141,030.3,045.5,0.251,760.9,01.16,0.508
2016-02-25 02:11:00,2133E-3,5C000400,-0724,0838,12127,030.3,045.5,0.252,760.9,01.16,0.508
2016-02-25 02:12:00,2036E-3,5C000400,-0724,0837,12056,030.4,045.5,0.252,760.9,01.16,0.508
2016-02-25 02:13:00,2109E-3,5C000400,-0724,0837,12186,030.4,045.5,0.252,760.9,01.16,0.508
2016-02-25 02:14:00,1965E-3,5C000400,-0724,0837,12130,030.3,045.5,0.252,760.9,01.16,0.508
2016-02-25 02:15:00,2107E-3,5C000400,-0724,0837,12126,030.3,045.5,0.251,760.9,01.16,0.508
2016-02-25 02:16:00,2152E-3,5C000400,-0724,0837,12117,030.3,045.5,0.251,760.9,01.16,0.508
2016-02-25 02:17:00,2077E-3,5C000400,-0724,0837,12156,030.4,045.5,0.252,760.9,01.16,0.508
2016-02-25 02:18:00,2127E-3,5C000400,-0724,0838,12229,030.4,045.5,0.252,760.9,01.16,0.508
2016-02-25 02:19:00,2280E-3,5C000400,-0724,0837,12025,030.4,045.5,0.252,760.9,01.16,0.508
2016-02-25 02:20:00,2248E-3,5C000400,-0724,0837,12180,030.4,045.5,0.251,760.9,01.16,0.508
2016-02-25 02:21:00,2028E-3,5C000400,-0724,0837,11970,030.4,045.5,0.251,760.9,01.16,0.508
2016-02-25 02:22:00,2203E-3,5C000400,-0724,0837,12048,030.4,045.5,0.252,760.9,01.16,0.508
2016-02-25 02:23:00,2090E-3,5C000400,-0724,0836,12119,030.4,045.5,0.252,760.9,01.16,0.508
2016-02-25 02:24:00,2339E-3,5C000400,-0724,0837,12223,030.4,045.5,0.252,760.9,01.16,0.508
2016-02-25 02:25:00,2195E-3,5C000400,-0724,0838,11897,030.4,045.5,0.251,760.8,01.16,0.508
2016-02-25 02:26:00,2115E-3,5C000400,-0724,0837,11911,030.4,045.5,0.251,760.8,01.16,0.508
2016-02-25 02:27:00,2245E-3,5C000400,-0724,0837,12268,030.4,045.5,0.251,760.8,01.16,0.508
2016-02-25 02:28:00,2196E-3,5C000400,-0724,0837,12003,030.4,045.5,0.252,760.8,01.16,0.508
2016-02-25 02:29:00,2282E-3,5C000400,-0724,0837,12135,030.4,045.5,0.251,760.8,01.16,0.508
2016-02-25 02:30:00,2064E-3,5C000400,-0724,0837,11985,030.5,045.5,0.251,760.8,01.16,0.508
2016-02-25 02:31:00,2083E-3,5C000400,-0724,0837,12134,030.4,045.5,0.251,760.8,01.16,0.508
2016-02-25 02:32:00,2050E-3,5C000400,-0724,0837,12118,030.5,045.5,0.251,760.8,01.16,0.508
2016-02-25 02:33:00,2239E-3,5C000400,-0724,0837,12209,030.5,045.5,0.251,760.8,01.16,0.508
2016-02-25 02:34:00,2095E-3,5C000400,-0724,0837,12097,030.5,045.5,0.251,760.8,01.16,0.508
2016-02-25 02:35:00,2037E-3,5C000400,-0724,0837,12181,030.5,045.5,0.251,760.8,01.16,0.508
2016-02-25 02:36:00,2191E-3,5C000400,-0724,0837,12140,030.5,045.5,0.251,760.8,01.16,0.508
2016-02-25 02:37:00,2065E-3,5C000400,-0724,0837,12151,030.5,045.5,0.252,760.7,01.16,0.508
2016-02-25 02:38:00,2160E-3,5C000400,-0724,0837,12095,030.5,045.5,0.251,760.7,01.16,0.508
2016-02-25 02:39:00,2040E-3,5C000400,-0724,0837,12098,030.5,045.5,0.251,760.7,01.16,0.508
2016-02-25 02:40:00,2337E-3,5C000400,-0724,0838,12046,030.5,045.5,0.251,760.7,01.16,0.508
2016-02-25 02:41:00,2144E-3,5C000400,-0724,0837,12092,030.5,045.5,0.251,760.7,01.16,0.508
2016-02-25 02:42:00,2210E-3,5C000400,-0724,0837,12088,030.5,045.5,0.252,760.7,01.16,0.508
2016-02-25 02:43:00,2198E-3,5C000400,-0724,0837,12124,030.6,045.5,0.251,760.7,01.16,0.508
2016-02-25 02:44:00,2131E-3,5C000400,-0724,0837,12112,030.6,045.5,0.251,760.6,01.16,0.508
2016-02-25 02:45:00,2149E-3,5C000400,-0724,0837,12070,030.6,045.5,0.251,760.7,01.16,0.508
2016-02-25 02:46:00,2183E-3,5C000400,-0724,0837,12018,030.6,045.5,0.251,760.7,01.16,0.508
2016-02-25 02:47:00,2151E-3,5C000400,-0724,0837,12156,030.6,045.5,0.251,760.7,01.16,0.508
2016-02-25 02:48:00,2152E-3,5C000400,-0724,0837,12208,030.6,045.5,0.251,760.7,01.16,0.508
2016-02-25 02:49:00,2240E-3,5C000400,-0724,0837,12087,030.6,045.5,0.251,760.6,01.16,0.508
2016-02-25 02:50:00,2189E-3,5C000400,-0724,0838,12209,030.6,045.5,0.251,760.6,01.16,0.508
2016-02-25 02:51:00,2228E-3,5C000400,-0724,0838,12039,030.6,045.5,0.251,760.6,01.16,0.508
2016-02-25 02:52:00,2177E-3,5C000400,-0724,0838,12127,030.6,045.5,0.251,760.6,01.16,0.508
2016-02-25 02:53:00,2145E-3,5C000400,-0724,0837,12167,030.6,045.5,0.251,760.6,01.16,0.508
2016-02-25 02:54:00,1994E-3,5C000400,-0724,0838,11998,030.6,045.5,0.251,760.6,01.16,0.508
2016-02-25 02:55:00,2135E-3,5C000400,-0724,0837,12205,030.6,045.5,0.251,760.6,01.16,0.508
2016-02-25 02:56:00,2103E-3,5C000400,-0724,0838,12099,030.6,045.5,0.251,760.6,01.16,0.508
2016-02-25 02:57:00,2183E-3,5C000400,-0724,0838,12040,030.6,045.5,0.251,760.6,01.16,0.508
2016-02-25 02:58:00,2103E-3,5C000400,-0724,0837,12224,030.7,045.5,0.251,760.6,01.16,0.508
2016-02-25 02:59:00,2156E-3,5C000400,-0724,0838,12248,030.6,045.5,0.251,760.6,01.16,0.508
2016-02-25 03:00:00,2224E-3,5C000400,-0724,0837,12127,030.7,045.5,0.251,760.6,01.16,0.508
2016-02-25 03:01:00,2187E-3,5C000400,-0724,0837,12093,030.7,045.5,0.251,760.6,01.16,0.508
2016-02-25 03:02:00,2103E-3,5C000400,-0724,0837,12239,030.7,045.5,0.251,760.6,01.16,0.508
2016-02-25 03:03:00,2114E-3,5C000400,-0724,0837,12181,030.7,045.5,0.251,760.6,01.16,0.508
2016-02-25 03:04:00,2317E-3,5C000400,-0724,0838,12140,030.7,045.5,0.251,760.6,01.16,0.508
2016-02-25 03:05:00,2149E-3,5C000400,-0724,0838,12051,030.7,045.5,0.251,760.6,01.16,0.508
2016-02-25 03:06:00,2074E-3,5C000400,-0724,0838,12113,030.7,045.5,0.251,760.5,01.16,0.508
2016-02-25 03:07:00,2086E-3,5C000400,-0724,0838,12178,030.7,045.5,0.250,760.5,01.16,0.508
2016-02-25 03:08:00,2094E-3,5C000400,-0724,0837,12069,030.7,045.5,0.251,760.5,01.16,0.508
2016-02-25 03:09:00,2158E-3,5C000400,-0724,0837,12188,030.7,045.5,0.251,760.5,01.16,0.508
2016-02-25 03:10:00,2160E-3,5C000400,-0724,0837,12122,030.7,045.5,0.251,760.5,01.16,0.508
2016-02-25 03:11:00,2272E-3,5C000400,-0724,0837,12125,030.7,045.5,0.251,760.5,01.16,0.508
2016-02-25 03:12:00,2197E-3,5C000400,-0724,0837,12155,030.8,045.5,0.251,760.5,01.16,0.508
2016-02-25 03:13:00,2291E-3,5C000400,-0724,0837,12073,030.8,045.5,0.250,760.5,01.16,0.508
2016-02-25 03:14:00,2198E-3,5C000400,-0724,0837,12065,030.8,045.5,0.251,760.5,01.16,0.508
2016-02-25 03:15:00,2059E-3,5C000400,-0724,0837,12069,030.8,045.5,0.251,760.5,01.16,0.508
2016-02-25 03:16:00,2095E-3,5C000400,-0724,0838,11967,030.8,045.5,0.251,760.4,01.16,0.508
2016-02-25 03:17:00,2157E-3,5C000400,-0724,0838,12146,030.8,045.5,0.250,760.4,01.16,0.508
2016-02-25 03:18:00,2073E-3,5C000400,-0724,0838,12086,030.8,045.5,0.251,760.4,01.16,0.508
2016-02-25 03:19:00,2160E-3,5C000400,-0724,0839,11959,030.8,045.5,0.251,760.4,01.16,0.508
2016-02-25 03:20:00,2268E-3,5C000400,-0724,0838,12104,030.8,045.5,0.251,760.4,01.16,0.508
2016-02-25 03:21:00,2086E-3,5C000400,-0724,0838,12095,030.8,045.5,0.251,760.4,01.16,0.508
2016-02-25 03:22:00,2191E-3,5C000400,-0724,0838,12255,030.9,045.5,0.251,760.4,01.16,0.508
2016-02-25 03:23:00,1949E-3,5C000400,-0724,0837,12055,030.9,045.5,0.251,760.3,01.16,0.508
2016-02-25 03:24:00,2181E-3,5C000400,-0724,0837,12110,030.9,045.5,0.251,760.3,01.16,0.508
2016-02-25 03:25:00,2139E-3,5C000400,-0724,0837,12138,030.9,045.5,0.251,760.3,01.16,0.508
2016-02-25 03:26:00,2065E-3,5C000400,-0724,0837,12227,030.9,045.5,0.250,760.3,01.16,0.508
2016-02-25 03:27:00,2059E-3,5C000400,-0724,0837,12204,030.9,045.5,0.251,760.3,01.16,0.508
2016-02-25 03:28:00,2152E-3,5C000400,-0724,0838,12072,030.9,045.5,0.251,760.3,01.16,0.508
2016-02-25 03:29:00,2103E-3,5C000400,-0724,0837,12215,030.9,045.5,0.250,760.3,01.16,0.508
2016-02-25 03:30:00,2111E-3,5C000400,-0724,0836,12228,030.9,045.5,0.251,760.3,01.16,0.508
2016-02-25 03:31:00,2126E-3,5C000400,-0724,0837,12286,030.9,045.5,0.251,760.3,01.16,0.508
2016-02-25 03:32:00,2124E-3,5C000400,-0724,0837,12181,030.9,045.5,0.251,760.3,01.16,0.508
2016-02-25 03:33:00,2116E-3,5C000400,-0724,0838,12093,031.0,045.5,0.250,760.3,01.16,0.508
2016-02-25 03:34:00,2025E-3,5C000400,-0724,0837,12197,031.0,045.5,0.250,760.3,01.16,0.508
2016-02-25 03:35:00,2086E-3,5C000400,-0724,0837,12152,031.0,045.5,0.251,760.3,01.16,0.508
2016-02-25 03:36:00,2218E-3,5C000400,-0724,0837,12222,031.0,045.5,0.251,760.2,01.16,0.508
2016-02-25 03:37:00,2050E-3,5C000400,-0724,0836,12061,031.0,045.5,0.250,760.3,01.16,0.508
2016-02-25 03:38:00,1973E-3,5C000400,-0724,0837,12172,031.0,045.5,0.250,760.3,01.16,0.508
2016-02-25 03:39:00,2101E-3,5C000400,-0724,0838,12010,031.0,045.5,0.251,760.3,01.16,0.508
2016-02-25 03:40:00,2255E-3,5C000400,-0724,0838,12013,031.0,045.5,0.251,760.3,01.16,0.508
2016-02-25 03:41:00,2150E-3,5C000400,-0724,0837,12234,031.0,045.5,0.250,760.3,01.16,0.508
2016-02-25 03:42:00,2069E-3,5C000400,-0724,0837,12190,031.0,045.5,0.251,760.3,01.16,0.508
2016-02-25 03:43:00,2042E-3,5C000400,-0724,0837,12115,031.0,045.5,0.251,760.3,01.16,0.508
2016-02-25 03:44:00,2199E-3,5C000400,-0724,0838,12156,031.1,045.5,0.250,760.2,01.16,0.508
2016-02-25 03:45:00,2098E-3,5C000400,-0724,0838,12211,031.0,045.5,0.250,760.3,01.16,0.508
2016-02-25 03:46:00,2010E-3,5C000400,-0724,0837,12162,031.0,045.5,0.251,760.3,01.16,0.508
2016-02-25 03:47:00,2112E-3,5C000400,-0724,0838,12110,031.1,045.5,0.250,760.3,01.16,0.508
2016-02-25 03:48:00,2039E-3,5C000400,-0724,0837,12141,031.1,045.5,0.250,760.3,01.16,0.508
2016-02-25 03:49:00,2137E-3,5C000400,-0724,0838,12095,031.1,045.5,0.250,760.3,01.16,0.508
2016-02-25 03:50:00,2143E-3,5C000400,-0724,0838,12041,031.1,045.5,0.250,760.3,01.16,0.508
2016-02-25 03:51:00,2025E-3,5C000400,-0724,0838,12196,031.1,045.5,0.250,760.3,01.16,0.508
2016-02-25 03:52:00,2188E-3,5C000400,-0724,0838,12161,031.1,045.5,0.250,760.3,01.16,0.508
2016-02-25 03:53:00,2152E-3,5C000400,-0724,0839,12163,031.1,045.5,0.250,760.3,01.16,0.508
2016-02-25 03:54:00,2136E-3,5C000400,-0724,0838,12017,031.1,045.5,0.250,760.3,01.16,0.508
2016-02-25 03:55:00,2052E-3,5C000400,-0724,0838,12057,031.1,045.5,0.250,760.3,01.16,0.508
2016-02-25 03:56:00,2147E-3,5C000400,-0724,0837,12183,031.1,045.5,0.250,760.3,01.16,0.508
2016-02-25 03:57:00,2109E-3,5C000400,-0724,0837,12133,031.2,045.5,0.250,760.3,01.16,0.508
2016-02-25 03:58:00,1995E-3,5C000400,-0724,0837,12275,031.2,045.5,0.250,760.2,01.16,0.508
2016-02-25 03:59:00,1972E-3,5C000400,-0724,0838,12139,031.2,045.5,0.250,760.2,01.16,0.508
2016-02-25 04:00:00,2107E-3,5C000400,-0724,0837,12235,031.2,045.5,0.250,760.2,01.16,0.508
2016-02-25 04:01:00,2124E-3,5C000400,-0724,0839,12239,031.2,045.5,0.250,760.1,01.16,0.508
2016-02-25 04:02:00,2086E-3,5C000400,-0724,0838,11962,031.2,045.5,0.250,760.4,01.16,0.508
2016-02-25 04:03:00,2189E-3,5C000400,-0724,0837,12169,031.2,045.5,0.250,760.2,01.16,0.508
2016-02-25 04:04:00,2138E-3,5C000400,-0724,0838,12156,031.2,045.5,0.250,760.2,01.16,0.508
2016-02-25 04:05:00,2031E-3,5C000400,-0724,0837,12147,031.3,045.5,0.250,760.2,01.16,0.508
2016-02-25 04:06:00,2085E-3,5C000400,-0724,0838,12063,031.3,045.5,0.250,760.2,01.16,0.508
2016-02-25 04:07:00,2174E-3,5C000400,-0724,0838,12009,031.3,045.5,0.250,760.2,01.16,0.508
2016-02-25 04:08:00,2075E-3,5C000400,-0724,0838,12028,031.3,045.5,0.250,760.2,01.16,0.508
2016-02-25 04:09:00,2023E-3,5C000400,-0724,0838,12091,031.3,045.5,0.250,760.1,01.16,0.508
2016-02-25 04:10:00,2250E-3,5C000400,-0724,0838,11987,031.3,045.5,0.250,760.1,01.16,0.508
2016-02-25 04:11:00,2203E-3,5C000400,-0724,0837,12131,031.3,045.5,0.250,760.1,01.16,0.508
2016-02-25 04:12:00,2156E-3,5C000400,-0724,0838,12125,031.3,045.5,0.250,760.1,01.16,0.508
2016-02-25 04:13:00,2128E-3,5C000400,-0724,0838,12104,031.3,045.5,0.250,760.1,01.16,0.508
2016-02-25 04:14:00,2086E-3,5C000400,-0724,0838,12116,031.3,045.5,0.250,760.1,01.16,0.508
2016-02-25 04:15:00,2085E-3,5C000400,-0724,0838,12138,031.3,045.5,0.250,760.1,01.16,0.508
2016-02-25 04:16:00,2108E-3,5C000400,-0724,0838,12239,031.3,045.5,0.250,760.1,01.16,0.508
2016-02-25 04:17:00,2143E-3,5C000400,-0724,0838,12194,031.4,045.5,0.250,760.1,01.16,0.508
2016-02-25 04:18:00,2069E-3,5C000400,-0724,0839,12111,031.4,045.5,0.250,760.1,01.16,0.508
2016-02-25 04:19:00,2123E-3,5C000400,-0724,0837,12113,031.4,045.5,0.250,760.1,01.16,0.508
2016-02-25 04:20:00,2082E-3,5C000400,-0724,0838,11954,031.4,045.5,0.250,760.0,01.16,0.508